When you browse on this site, cookies collect data to enhance your experience and personalize the content and advertising you see.
Visit our Privacy Policy to learn more. By continuing to use the site, you agree to this use of cookies and data.
  • In Austria
  • List of Countries
  • For 7 days
  • Water Temperature
  • Satellite Maps
  • Weather Map
  • News
  • Weather Widgets
  • user-avatar
    Login

    Hourly Weather Sankt Polten

    Today, 21 May, Tuesday

    Time Temperature Precipitation Wind Pressure Humidity
    00:00 +11°C° 0 mm 1 mps 726 mmHg 97%
    01:00 +10°C° 0 mm 1 mps 726 mmHg 96%
    02:00 +11°C° 0 mm 1 mps 726 mmHg 96%
    03:00 +11°C° 0 mm 1 mps 727 mmHg 96%
    04:00 +11°C° 0 mm 1 mps 727 mmHg 96%
    05:00 +12°C° 0 mm 1 mps 727 mmHg 94%
    06:00 +13°C° 0 mm 1 mps 727 mmHg 92%
    07:00 +14°C° 0 mm 2 mps 727 mmHg 90%
    08:00 +14°C° 0.1 mm 2 mps 727 mmHg 87%
    09:00 +13°C° 0.1 mm 3 mps 728 mmHg 85%
    10:00 +13°C° 0.1 mm 4 mps 728 mmHg 83%
    11:00 +13°C° 0.1 mm 4 mps 728 mmHg 83%
    12:00 +13°C° 0.1 mm 5 mps 729 mmHg 82%
    13:00 +13°C° 0.1 mm 5 mps 729 mmHg 82%
    14:00 +13°C° 0 mm 6 mps 729 mmHg 80%
    15:00 +13°C° 0 mm 6 mps 729 mmHg 77%
    16:00 +14°C° 0 mm 6 mps 729 mmHg 75%
    17:00 +13°C° 0 mm 6 mps 729 mmHg 77%
    18:00 +13°C° 0 mm 6 mps 729 mmHg 80%
    19:00 +11°C° 0 mm 6 mps 729 mmHg 82%
    20:00 +11°C° 0 mm 6 mps 730 mmHg 83%
    21:00 +11°C° 0 mm 6 mps 730 mmHg 84%
    22:00 +12°C° 0 mm 5 mps 730 mmHg 85%
    23:00 +12°C° 0.1 mm 5 mps 731 mmHg 86%

    Tomorrow, 22 May, Wednesday

    Time Temperature Precipitation Wind Pressure Humidity
    00:00 +11°C° 0.1 mm 6 mps 731 mmHg 87%
    01:00 +11°C° 0.1 mm 6 mps 731 mmHg 88%
    02:00 +11°C° 0.1 mm 6 mps 731 mmHg 88%
    03:00 +11°C° 0.1 mm 6 mps 731 mmHg 88%
    04:00 +11°C° 0.1 mm 7 mps 731 mmHg 88%
    05:00 +11°C° 0.1 mm 6 mps 732 mmHg 88%
    06:00 +11°C° 0.1 mm 6 mps 732 mmHg 89%
    07:00 +11°C° 0.1 mm 6 mps 732 mmHg 89%
    08:00 +11°C° 0.2 mm 6 mps 732 mmHg 89%
    09:00 +11°C° 0.2 mm 6 mps 733 mmHg 89%
    10:00 +13°C° 0.2 mm 6 mps 733 mmHg 89%
    11:00 +13°C° 0.2 mm 6 mps 733 mmHg 87%
    12:00 +14°C° 0.2 mm 7 mps 733 mmHg 85%
    13:00 +14°C° 0.2 mm 7 mps 733 mmHg 83%
    14:00 +15°C° 0.1 mm 7 mps 734 mmHg 82%
    15:00 +15°C° 0.1 mm 6 mps 734 mmHg 80%
    16:00 +15°C° 0.1 mm 6 mps 734 mmHg 78%
    17:00 +15°C° 0.2 mm 5 mps 734 mmHg 82%
    18:00 +14°C° 0.2 mm 4 mps 734 mmHg 86%
    19:00 +14°C° 0.2 mm 3 mps 735 mmHg 90%
    20:00 +13°C° 0.1 mm 3 mps 735 mmHg 92%
    21:00 +12°C° 0.1 mm 3 mps 735 mmHg 93%
    22:00 +13°C° 0.1 mm 2 mps 736 mmHg 94%
    23:00 +13°C° 0 mm 2 mps 736 mmHg 95%

    Day after tomorrow, 23 May, Thursday

    Time Temperature Precipitation Wind Pressure Humidity
    00:00 +12°C° 0 mm 2 mps 736 mmHg 96%
    01:00 +12°C° 0 mm 2 mps 736 mmHg 96%
    02:00 +12°C° 0 mm 2 mps 736 mmHg 96%
    03:00 +12°C° 0 mm 2 mps 736 mmHg 97%
    04:00 +10°C° 0 mm 2 mps 736 mmHg 97%
    05:00 +11°C° 0 mm 3 mps 737 mmHg 94%
    06:00 +12°C° 0 mm 3 mps 737 mmHg 90%
    07:00 +12°C° 0 mm 3 mps 737 mmHg 87%
    08:00 +14°C° 0 mm 4 mps 737 mmHg 77%
    09:00 +15°C° 0 mm 4 mps 737 mmHg 67%
    10:00 +18°C° 0 mm 4 mps 737 mmHg 57%
    11:00 +18°C° 0 mm 4 mps 737 mmHg 53%
    12:00 +19°C° 0 mm 4 mps 737 mmHg 50%
    13:00 +20°C° 0 mm 4 mps 737 mmHg 46%
    14:00 +20°C° 0 mm 3 mps 736 mmHg 46%
    15:00 +20°C° 0 mm 3 mps 736 mmHg 46%
    16:00 +20°C° 0 mm 3 mps 736 mmHg 47%
    17:00 +18°C° 0 mm 2 mps 736 mmHg 55%
    18:00 +18°C° 0 mm 1 mps 736 mmHg 64%
    19:00 +15°C° 0 mm 1 mps 736 mmHg 73%
    20:00 +14°C° 0 mm 1 mps 736 mmHg 77%
    21:00 +12°C° 0 mm 1 mps 737 mmHg 81%
    22:00 +10°C° 0 mm 0 mps 737 mmHg 85%
    23:00 +10°C° 0 mm 1 mps 737 mmHg 86%

    24 May, Friday

    Time Temperature Precipitation Wind Pressure Humidity
    00:00 +10°C° 0 mm 1 mps 737 mmHg 86%
    01:00 +10°C° 0 mm 1 mps 737 mmHg 87%
    02:00 +10°C° 0 mm 1 mps 736 mmHg 86%
    03:00 +10°C° 0 mm 1 mps 736 mmHg 86%
    04:00 +10°C° 0 mm 1 mps 736 mmHg 85%
    05:00 +12°C° 0 mm 1 mps 736 mmHg 80%
    06:00 +13°C° 0 mm 1 mps 736 mmHg 74%
    07:00 +15°C° 0 mm 1 mps 736 mmHg 68%
    08:00 +18°C° 0 mm 1 mps 735 mmHg 63%
    09:00 +20°C° 0 mm 1 mps 735 mmHg 57%
    10:00 +21°C° 0 mm 1 mps 735 mmHg 52%
    11:00 +22°C° 0 mm 1 mps 735 mmHg 51%
    12:00 +21°C° 0 mm 2 mps 734 mmHg 49%
    13:00 +23°C° 0 mm 2 mps 734 mmHg 48%
    14:00 +23°C° 0 mm 1 mps 733 mmHg 49%
    15:00 +23°C° 0 mm 1 mps 733 mmHg 49%
    16:00 +23°C° 0 mm 1 mps 732 mmHg 50%
    17:00 +21°C° 0 mm 1 mps 732 mmHg 58%
    18:00 +19°C° 0 mm 1 mps 732 mmHg 67%
    19:00 +16°C° 0 mm 1 mps 732 mmHg 75%
    20:00 +15°C° 0 mm 1 mps 732 mmHg 79%
    21:00 +14°C° 0 mm 1 mps 732 mmHg 83%
    22:00 +13°C° 0 mm 1 mps 732 mmHg 87%
    23:00 +12°C° 0 mm 1 mps 732 mmHg 88%

    25 May, Saturday

    Time Temperature Precipitation Wind Pressure Humidity
    00:00 +12°C° 0 mm 1 mps 732 mmHg 89%
    01:00 +12°C° 0 mm 1 mps 732 mmHg 91%
    02:00 +11°C° 0 mm 1 mps 732 mmHg 91%
    03:00 +11°C° 0 mm 1 mps 732 mmHg 92%
    04:00 +11°C° 0 mm 1 mps 731 mmHg 92%
    05:00 +13°C° 0 mm 1 mps 732 mmHg 85%
    06:00 +14°C° 0 mm 0 mps 732 mmHg 78%
    07:00 +16°C° 0 mm 0 mps 732 mmHg 70%
    08:00 +18°C° 0 mm 0 mps 732 mmHg 63%
    09:00 +22°C° 0 mm 1 mps 732 mmHg 56%
    10:00 +24°C° 0 mm 1 mps 732 mmHg 49%
    11:00 +24°C° 0 mm 1 mps 732 mmHg 47%
    12:00 +25°C° 0 mm 1 mps 732 mmHg 45%
    13:00 +26°C° 0 mm 1 mps 732 mmHg 43%
    14:00 +26°C° 0 mm 1 mps 732 mmHg 45%
    15:00 +25°C° 0 mm 1 mps 732 mmHg 47%
    16:00 +25°C° 0 mm 1 mps 731 mmHg 49%
    17:00 +23°C° 0.3 mm 1 mps 731 mmHg 60%
    18:00 +21°C° 0.3 mm 1 mps 731 mmHg 71%
    19:00 +19°C° 0.3 mm 1 mps 731 mmHg 82%
    20:00 +17°C° 0.3 mm 2 mps 732 mmHg 86%
    21:00 +16°C° 0.3 mm 2 mps 732 mmHg 90%
    22:00 +15°C° 0.3 mm 2 mps 732 mmHg 94%
    23:00 +15°C° 1.1 mm 2 mps 733 mmHg 95%

    26 May, Sunday

    Time Temperature Precipitation Wind Pressure Humidity
    00:00 +15°C° 1.1 mm 2 mps 733 mmHg 96%
    01:00 +14°C° 1.1 mm 2 mps 733 mmHg 97%
    02:00 +14°C° 0.3 mm 2 mps 733 mmHg 97%
    03:00 +14°C° 0.3 mm 2 mps 733 mmHg 96%
    04:00 +14°C° 0.3 mm 2 mps 733 mmHg 96%
    05:00 +13°C° 0.1 mm 3 mps 733 mmHg 95%
    06:00 +14°C° 0.1 mm 3 mps 734 mmHg 94%
    07:00 +14°C° 0.1 mm 3 mps 734 mmHg 93%
    08:00 +15°C° 0.1 mm 4 mps 734 mmHg 88%
    09:00 +15°C° 0.1 mm 4 mps 734 mmHg 83%
    10:00 +17°C° 0.1 mm 4 mps 734 mmHg 78%
    11:00 +18°C° 0 mm 4 mps 734 mmHg 72%
    12:00 +19°C° 0 mm 5 mps 734 mmHg 65%
    13:00 +21°C° 0 mm 5 mps 734 mmHg 59%
    14:00 +21°C° 0.1 mm 5 mps 734 mmHg 60%
    15:00 +20°C° 0.1 mm 5 mps 734 mmHg 62%
    16:00 +20°C° 0.1 mm 5 mps 734 mmHg 64%
    17:00 +19°C° 0.1 mm 4 mps 734 mmHg 70%
    18:00 +18°C° 0.1 mm 3 mps 734 mmHg 76%
    19:00 +17°C° 0.1 mm 3 mps 734 mmHg 82%
    20:00 +16°C° 0.1 mm 2 mps 735 mmHg 86%
    21:00 +14°C° 0.1 mm 2 mps 735 mmHg 89%
    22:00 +13°C° 0.1 mm 2 mps 735 mmHg 93%
    23:00 +13°C° 0 mm 2 mps 735 mmHg 93%
    Show more